Location: Taylor Dark Sky Site
(39.1017°N, 87.9564°W)
Time: 11:00:42
(UTC-05:00)

Amateur Radio Satellites - All Passes

Search period start: 29 June 2017 10:30
Search period end: 30 June 2017 10:30
Location: Taylor Dark Sky Site, 39.1017°N, 87.9564°W

Satellite Date Start Highest point End Downlink Frequencies (MHz)
Time Altitude Azimuth
M-CUBED/EXP-1 PRIME 29 Jun 10:34:47 10:36:11 12° 261° (W) 10:37:35 437.505
EO-79 29 Jun 10:45:27 10:47:41 14° 65° (ENE) 10:49:55 145.935-145.965
AO-73 29 Jun 10:49:25 10:51:49 15° 296° (WNW) 10:54:10 145.935
DUCHIFAT 1 29 Jun 10:54:14 10:56:26 14° 65° (ENE) 10:58:40 145.980
FO-29 29 Jun 10:56:10 11:01:35 31° 267° (W) 11:07:38 435.910
NANOSAT C BR1 29 Jun 11:04:07 11:07:14 20° 67° (ENE) 11:10:23 145.865
TIGRISAT 29 Jun 11:06:07 11:09:46 23° 266° (W) 11:13:30 435.000
Tancredo 1 29 Jun 11:10:09 11:10:30 10° 13° (NNE) 11:10:50 437.200
Oscar 11 29 Jun 11:12:34 11:13:35 11° 297° (WNW) 11:14:35 .
AIST 2D 29 Jun 11:16:26 11:19:57 64° 76° (ENE) 11:23:29 435.315
EO-88 29 Jun 11:16:35 11:19:58 37° 287° (WNW) 11:23:20 145.990 - 145.960
PRISM 29 Jun 11:18:48 11:20:30 12° 268° (W) 11:22:12 437.425
DELFI C3 29 Jun 11:21:18 11:24:32 25° 290° (WNW) 11:27:47 145.870
LO-87 29 Jun 11:25:08 11:28:19 28° 97° (E) 11:31:29 145.935 - 145.965
POLYITAN 1 29 Jun 11:44:41 11:48:54 65° 75° (ENE) 11:53:10 437.675
PCSat 29 Jun 11:44:55 11:50:18 69° 300° (WNW) 11:55:44 145.827
BUGSAT 1 29 Jun 11:46:32 11:49:02 16° 65° (ENE) 11:51:33 437.445
QB50P2 29 Jun 11:55:46 12:00:01 85° 256° (WSW) 12:04:20 145.880/145.840
SPROUT 29 Jun 12:05:02 12:06:27 11° 91° (E) 12:07:52 437.525
VELOX 1 29 Jun 12:16:02 12:18:27 14° 92° (E) 12:20:52 145.980
JUGNU 29 Jun 12:16:56 12:17:44 10° 174° (S) 12:18:31 437.505
Oscar 19 29 Jun 12:16:57 12:20:05 17° 63° (ENE) 12:23:15 437.125/150
EO-79 29 Jun 12:18:52 12:22:59 49° 260° (W) 12:27:10 145.935-145.965
ISS 29 Jun 12:19:22 12:21:31 16° 20° (NNE) 12:23:40 437.550
DUCHIFAT 1 29 Jun 12:27:34 12:31:40 49° 260° (W) 12:35:49 145.980
ESTCUBE 1 29 Jun 12:31:57 12:36:26 82° 286° (WNW) 12:40:54 437.505/2401.250
NANOSAT C BR1 29 Jun 12:38:54 12:42:43 32° 263° (W) 12:46:34 145.865
Tancredo 1 29 Jun 12:43:58 12:46:47 34° 32° (NNE) 12:49:35 437.200
LO-87 29 Jun 12:59:09 13:01:32 17° 292° (WNW) 13:03:54 145.935 - 145.965
SO-50 29 Jun 13:02:02 13:06:20 42° 116° (ESE) 13:10:37 436.795
AO-7 29 Jun 13:16:45 13:20:40 14° 47° (NE) 13:24:35 .
BUGSAT 1 29 Jun 13:20:05 13:24:00 42° 261° (W) 13:28:01 437.445
PCSat 29 Jun 13:32:39 13:34:43 12° 320° (NW) 13:36:48 145.827
SPROUT 29 Jun 13:38:27 13:42:41 57° 286° (WNW) 13:46:52 437.525
50 SAT 29 Jun 13:41:28 13:44:52 65° 102° (ESE) 13:48:16 437.505
Gurwin Techsat 1B 29 Jun 13:42:51 13:48:06 66° 73° (ENE) 13:53:23 435.225
VELOX 1 29 Jun 13:50:51 13:55:08 48° 287° (WNW) 13:59:25 145.980
Oscar 19 29 Jun 13:53:49 13:58:54 60° 259° (W) 14:03:59 437.125/150
ISS 29 Jun 13:55:07 13:58:26 82° 40° (NE) 14:01:43 437.550
DX 1 29 Jun 13:55:57 14:00:18 59° 102° (ESE) 14:04:36 434.975-435.025
UKube-1 29 Jun 14:04:01 14:08:13 47° 100° (E) 14:12:23 .
JUGNU 29 Jun 14:04:35 14:05:47 11° 185° (S) 14:06:59 437.505
Tancredo 1 29 Jun 14:19:50 14:22:13 21° 227° (SW) 14:24:35 437.200
ITAMSAT 1 29 Jun 14:41:34 14:46:03 30° 67° (ENE) 14:50:34 435.822/435.867
SO-50 29 Jun 14:43:22 14:46:57 22° 313° (NW) 14:50:30 436.795
AO-7 29 Jun 15:03:38 15:11:49 65° 67° (ENE) 15:20:03 .
Gurwin Techsat 1B 29 Jun 15:25:43 15:28:29 14° 269° (W) 15:31:16 435.225
ITUPSAT 1 29 Jun 15:29:25 15:33:50 36° 98° (E) 15:38:12 437.325
DX 1 29 Jun 15:34:02 15:35:57 13° 297° (WNW) 15:37:52 434.975-435.025
BEESAT 29 Jun 15:36:14 15:40:48 43° 99° (E) 15:45:19 436.000
UKube-1 29 Jun 15:41:20 15:43:49 15° 296° (WNW) 15:46:17 .
SRMSAT 29 Jun 15:57:33 15:59:17 11° 180° (S) 16:01:01 437.500
MOZHAYETS 4 29 Jun 16:04:35 16:09:06 59° 100° (E) 16:13:36
ITAMSAT 1 29 Jun 16:20:50 16:25:25 31° 263° (W) 16:30:03 435.822/435.867
CUBESAT XI-V 29 Jun 16:57:42 17:02:01 39° 98° (E) 17:06:19 437.345
AO-7 29 Jun 16:58:22 17:05:04 27° 265° (W) 17:11:49 .
XW-2D 29 Jun 16:59:48 17:00:02 10° 65° (ENE) 17:00:15 145.860 - 145.880
KKS-1 29 Jun 17:05:40 17:09:37 30° 97° (E) 17:13:33 437.445
XW-2B 29 Jun 17:07:28 17:09:06 12° 66° (ENE) 17:10:44 145.730 - 145.750
ITUPSAT 1 29 Jun 17:07:42 17:11:25 23° 294° (WNW) 17:15:08 437.325
LilacSat-2 29 Jun 17:11:35 17:13:51 15° 67° (ENE) 17:16:07 437.200
BEESAT 29 Jun 17:14:52 17:18:13 19° 295° (WNW) 17:21:34 436.000
XW-2C 29 Jun 17:21:58 17:24:41 19° 69° (ENE) 17:27:26 145.795 - 145.815
STARS 29 Jun 17:23:04 17:26:15 19° 94° (E) 17:29:24 437.465
DOVE 4 29 Jun 17:24:53 17:28:55 51° 74° (ENE) 17:33:09 437.250
KAITUO 1B 29 Jun 17:25:07 17:27:23 16° 68° (ENE) 17:29:40 145.475/437.950
MOZHAYETS 4 29 Jun 17:43:28 17:45:44 14° 296° (WNW) 17:47:59
NUDT-PHONESAT 29 Jun 17:52:52 17:56:14 32° 72° (ENE) 17:59:37 437.300
CUTE-I 29 Jun 17:56:15 18:01:21 50° 71° (ENE) 18:06:31 437.470
HO-68 29 Jun 18:06:12 18:11:55 26° 60° (ENE) 18:17:37 435.675
XW-2F 29 Jun 18:22:33 18:26:21 78° 259° (WSW) 18:30:11 145.980 - 146.000
XW-2D 29 Jun 18:29:56 18:33:42 56° 260° (W) 18:37:29 145.860 - 145.880
CUBESAT XI-V 29 Jun 18:35:48 18:39:06 20° 293° (WNW) 18:42:23 437.345
AO-85 29 Jun 18:38:41 18:41:16 16° 111° (ESE) 18:43:50 145.980
XW-2B 29 Jun 18:39:12 18:42:52 44° 261° (W) 18:46:33 145.730 - 145.750
KKS-1 29 Jun 18:42:24 18:46:01 24° 292° (WNW) 18:49:38 437.445
LilacSat-2 29 Jun 18:44:14 18:47:48 36° 262° (W) 18:51:23 437.200
PCSat 29 Jun 18:52:35 18:54:57 13° 41° (NE) 18:57:19 145.827
XW-2C 29 Jun 18:55:22 18:58:41 27° 263° (W) 19:02:00 145.795 - 145.815
KAITUO 1B 29 Jun 18:57:40 19:01:06 33° 263° (W) 19:04:32 145.475/437.950
STARS 29 Jun 18:58:35 19:02:40 36° 289° (WNW) 19:06:44 437.465
CUBEBUG 2 29 Jun 18:59:51 19:03:30 23° 67° (ENE) 19:07:14 437.445
XW-2A 29 Jun 19:03:40 19:06:39 28° 72° (ENE) 19:09:38 145.665 - 145.685
DOVE 4 29 Jun 19:05:23 19:07:00 12° 270° (W) 19:08:39 437.250
BEESAT 3 29 Jun 19:06:40 19:09:33 20° 111° (ESE) 19:12:29 437.485
SEEDS 29 Jun 19:09:38 19:13:24 33° 71° (ENE) 19:17:09 437.485
STRAND 1 29 Jun 19:23:32 19:27:28 22° 94° (E) 19:31:21 437.568
UWE-3 29 Jun 19:23:35 19:27:19 25° 68° (ENE) 19:31:06 435.000/436.395/437.385
NUDT-PHONESAT 29 Jun 19:27:59 19:30:12 15° 267° (W) 19:32:25 437.300
CUTE 1.7 + AOD 2 29 Jun 19:35:36 19:39:50 75° 258° (WSW) 19:44:05 437.475
NO-84 29 Jun 19:35:44 19:38:48 25° 125° (SE) 19:42:05 435.350 FM
CUTE-I 29 Jun 19:37:53 19:41:39 19° 267° (W) 19:45:27 437.470
AAUSAT CUBESAT 2 29 Jun 19:46:22 19:50:11 39° 73° (ENE) 19:54:01 437.432
RS-15 29 Jun 19:51:20 20:02:51 54° 110° (ESE) 20:14:38 29.354- 29.394
HO-68 29 Jun 19:52:01 19:59:06 61° 258° (WSW) 20:06:14 435.675
AO-73 29 Jun 20:05:37 20:09:43 34° 71° (ENE) 20:13:51 145.935
BEESAT 2 29 Jun 20:15:28 20:19:10 38° 115° (ESE) 20:22:55 435.950
AO-85 29 Jun 20:17:33 20:21:22 38° 306° (NW) 20:25:05 145.980
Oscar 11 29 Jun 20:27:06 20:31:12 43° 73° (ENE) 20:35:19 .
DELFI C3 29 Jun 20:32:52 20:34:06 11° 65° (ENE) 20:35:21 145.870
PCSat 29 Jun 20:33:51 20:39:18 74° 61° (ENE) 20:44:42 145.827
CUBEBUG 2 29 Jun 20:35:41 20:39:53 34° 264° (W) 20:44:12 437.445
XW-2A 29 Jun 20:37:28 20:39:25 14° 267° (W) 20:41:23 145.665 - 145.685
ZACube-1 29 Jun 20:43:00 20:47:34 84° 259° (W) 20:52:11 437.345
BEESAT 3 29 Jun 20:43:15 20:46:53 34° 307° (NW) 20:50:35 437.485
SEEDS 29 Jun 20:46:09 20:49:07 19° 266° (W) 20:52:06 437.485
UWE-3 29 Jun 20:59:29 21:03:35 32° 264° (W) 21:07:46 435.000/436.395/437.385
YUBILEINY 29 Jun 21:00:22 21:08:19 40° 86° (E) 21:16:17 435.215
STRAND 1 29 Jun 21:01:56 21:06:46 42° 290° (WNW) 21:11:35 437.568
O/OREOS (USA 219) 29 Jun 21:05:36 21:10:09 76° 292° (WNW) 21:14:41 437.305
NO-84 29 Jun 21:12:35 21:16:11 37° 324° (NW) 21:20:04 435.350 FM
AAUSAT CUBESAT 2 29 Jun 21:23:21 21:25:47 15° 268° (W) 21:28:13 437.432
SO-50 29 Jun 21:34:17 21:38:15 29° 50° (NE) 21:42:14 436.795
AO-73 29 Jun 21:42:28 21:45:59 22° 266° (W) 21:49:31 145.935
EO-88 29 Jun 21:52:28 21:56:07 70° 75° (ENE) 21:59:46 145.990 - 145.960
BEESAT 2 29 Jun 21:54:06 21:57:03 19° 313° (NW) 22:00:03 435.950
LO-87 29 Jun 22:02:43 22:03:11 10° 65° (ENE) 22:03:37 145.935 - 145.965
RS-15 29 Jun 22:03:47 22:15:31 50° 313° (NW) 22:27:28 29.354- 29.394
DELFI C3 29 Jun 22:04:35 22:08:24 51° 260° (W) 22:12:14 145.870
Oscar 11 29 Jun 22:04:58 22:07:32 15° 268° (W) 22:10:04 .
FO-29 29 Jun 22:05:14 22:12:47 47° 97° (E) 22:20:01 435.910
UNISAT 6 29 Jun 22:05:17 22:09:01 24° 94° (E) 22:12:41 437.425
M-CUBED/EXP-1 PRIME 29 Jun 22:10:58 22:14:28 30° 103° (ESE) 22:18:11 437.505
PCSat 29 Jun 22:19:22 22:21:59 14° 257° (WSW) 22:24:38 145.827
NO-84 29 Jun 22:53:08 22:54:48 12° 344° (NNW) 22:56:31 435.350 FM
YUBILEINY 29 Jun 22:56:42 23:04:57 44° 285° (WNW) 23:13:18 435.215
TIGRISAT 29 Jun 22:57:36 23:02:15 84° 105° (ESE) 23:06:45 435.000
PRISM 29 Jun 22:58:10 23:02:19 88° 275° (W) 23:06:27 437.425
VELOX 1 29 Jun 23:13:20 23:14:55 12° 63° (ENE) 23:16:31 145.980
SO-50 29 Jun 23:14:42 23:18:40 30° 246° (WSW) 23:22:38 436.795
ESTCUBE 1 29 Jun 23:29:53 23:34:22 79° 77° (ENE) 23:38:53 437.505/2401.250
LO-87 29 Jun 23:32:43 23:36:09 46° 261° (W) 23:39:38 145.935 - 145.965
POLYITAN 1 29 Jun 23:32:54 23:34:17 11° 91° (E) 23:35:39 437.675
UNISAT 6 29 Jun 23:41:40 23:45:42 30° 291° (WNW) 23:49:39 437.425
QB50P2 29 Jun 23:42:48 23:45:35 17° 93° (E) 23:48:22 145.880/145.840
M-CUBED/EXP-1 PRIME 29 Jun 23:45:49 23:48:45 21° 295° (WNW) 23:51:50 437.505
FO-29 29 Jun 23:50:28 23:57:30 38° 295° (WNW) 00:04:23 435.910
EO-79 30 Jun 00:04:49 00:08:28 27° 96° (E) 00:12:05 145.935-145.965
50 SAT 30 Jun 00:12:49 00:15:13 18° 69° (ENE) 00:17:37 437.505
DUCHIFAT 1 30 Jun 00:12:51 00:16:27 27° 96° (E) 00:20:02 145.980
AIST 2D 30 Jun 00:15:34 00:19:04 85° 284° (WNW) 00:22:32 435.315
RS-15 30 Jun 00:23:15 00:32:07 22° 344° (NNW) 00:40:58 29.354- 29.394
NANOSAT C BR1 30 Jun 00:23:48 00:27:50 40° 99° (E) 00:31:49 145.865
SPROUT 30 Jun 00:30:00 00:34:17 90° 273° (W) 00:38:36 437.525
VELOX 1 30 Jun 00:46:28 00:50:48 64° 259° (W) 00:55:10 145.980
DX 1 30 Jun 00:50:10 00:54:15 43° 72° (ENE) 00:58:22 434.975-435.025
UKube-1 30 Jun 00:57:17 01:01:09 34° 70° (ENE) 01:05:03 .
BUGSAT 1 30 Jun 01:02:56 01:06:37 28° 96° (E) 01:10:16 437.445
POLYITAN 1 30 Jun 01:06:12 01:10:24 56° 286° (WNW) 01:14:33 437.675
QB50P2 30 Jun 01:17:33 01:21:30 38° 289° (WNW) 01:25:26 145.880/145.840
EO-79 30 Jun 01:40:40 01:44:05 24° 292° (WNW) 01:47:29 145.935-145.965
50 SAT 30 Jun 01:45:16 01:47:51 21° 264° (W) 01:50:29 437.505
DUCHIFAT 1 30 Jun 01:48:34 01:51:59 24° 291° (WNW) 01:55:23 145.980
NANOSAT C BR1 30 Jun 02:00:30 02:03:11 17° 294° (WNW) 02:05:52 145.865
Gurwin Techsat 1B 30 Jun 02:00:39 02:05:13 28° 96° (E) 02:09:45 435.225
Oscar 19 30 Jun 02:06:25 02:11:25 52° 100° (E) 02:16:24 437.125/150
NO-84 30 Jun 02:09:54 02:13:09 20° 27° (NNE) 02:16:24 435.350 FM
DX 1 30 Jun 02:28:05 02:30:37 15° 267° (W) 02:33:11 434.975-435.025
UKube-1 30 Jun 02:34:11 02:37:14 19° 266° (W) 02:40:19 .
ITUPSAT 1 30 Jun 02:34:52 02:39:16 38° 70° (ENE) 02:43:44 437.325
BUGSAT 1 30 Jun 02:38:29 02:41:48 22° 292° (WNW) 02:45:05 437.445
BEESAT 30 Jun 02:41:16 02:45:48 45° 71° (ENE) 02:50:23 436.000
RS-15 30 Jun 02:41:39 02:50:57 24° 21° (NNE) 02:59:58 29.354- 29.394
ITAMSAT 1 30 Jun 02:58:02 02:59:11 11° 89° (E) 03:00:20 435.822/435.867
MOZHAYETS 4 30 Jun 03:04:58 03:09:25 49° 73° (ENE) 03:13:53
AO-7 30 Jun 03:07:52 03:13:53 21° 93° (E) 03:19:51 .
AO-85 30 Jun 03:10:02 03:12:06 13° 44° (NE) 03:14:12 145.980
BEESAT 3 30 Jun 03:25:17 03:26:23 11° 41° (NE) 03:27:30 437.485
Gurwin Techsat 1B 30 Jun 03:40:22 03:45:09 34° 291° (WNW) 03:49:54 435.225
Oscar 19 30 Jun 03:46:49 03:50:18 19° 296° (WNW) 03:53:47 437.125/150
NO-84 30 Jun 03:46:51 03:51:15 88° 236° (WSW) 03:55:33 435.350 FM
CUBESAT XI-V 30 Jun 03:59:48 04:03:57 34° 70° (ENE) 04:08:06 437.345
KKS-1 30 Jun 04:02:47 04:06:21 24° 68° (ENE) 04:09:58 437.445
ITUPSAT 1 30 Jun 04:13:32 04:17:11 21° 266° (W) 04:20:52 437.325
STARS 30 Jun 04:19:12 04:21:48 16° 64° (ENE) 04:24:24 437.465
BEESAT 30 Jun 04:20:32 04:23:46 18° 267° (W) 04:27:02 436.000
ITAMSAT 1 30 Jun 04:33:58 04:39:14 83° 283° (WNW) 04:44:27 435.822/435.867
BEESAT 2 30 Jun 04:34:29 04:37:25 19° 47° (NE) 04:40:20 435.950
MOZHAYETS 4 30 Jun 04:44:05 04:46:49 15° 268° (W) 04:49:33
AO-85 30 Jun 04:48:43 04:52:53 71° 240° (WSW) 04:57:19 145.980
RS-15 30 Jun 04:54:49 05:06:52 59° 51° (NE) 05:18:14 29.354- 29.394
AO-7 30 Jun 04:58:59 05:07:22 78° 291° (WNW) 05:15:42 .
BEESAT 3 30 Jun 05:00:32 05:04:33 87° 241° (WSW) 05:08:30 437.485
Tancredo 1 30 Jun 05:14:45 05:16:18 13° 130° (SE) 05:17:52 437.200
DOVE 4 30 Jun 05:24:45 05:28:16 19° 93° (E) 05:31:50 437.250
NO-84 30 Jun 05:26:53 05:28:12 11° 240° (WSW) 05:29:30 435.350 FM
CUBESAT XI-V 30 Jun 05:37:46 05:41:22 22° 266° (W) 05:44:57 437.345
O/OREOS (USA 219) 30 Jun 05:38:38 05:41:32 17° 56° (ENE) 05:44:27 437.305
KKS-1 30 Jun 05:38:56 05:42:46 29° 263° (W) 05:46:39 437.445
STARS 30 Jun 05:53:30 05:57:43 47° 260° (W) 06:01:59 437.465
XW-2F 30 Jun 05:57:59 05:59:04 11° 91° (E) 06:00:10 145.980 - 146.000
XW-2D 30 Jun 06:04:39 06:06:54 15° 93° (E) 06:09:08 145.860 - 145.880
BEESAT 2 30 Jun 06:11:31 06:15:21 41° 244° (WSW) 06:19:07 435.950
XW-2B 30 Jun 06:13:25 06:16:08 19° 94° (E) 06:18:48 145.730 - 145.750
CUTE-I 30 Jun 06:15:04 06:19:09 22° 94° (E) 06:23:13 437.470
ITAMSAT 1 30 Jun 06:16:59 06:17:49 10° 302° (WNW) 06:18:39 435.822/435.867
LilacSat-2 30 Jun 06:18:41 06:21:46 23° 95° (E) 06:24:49 437.200
XW-2C 30 Jun 06:28:41 06:32:00 29° 97° (E) 06:35:17 145.795 - 145.815
KAITUO 1B 30 Jun 06:30:01 06:33:00 23° 95° (E) 06:35:57 145.475/437.950
ISS 30 Jun 06:34:09 06:37:17 45° 137° (SE) 06:40:26 437.550
STRAND 1 30 Jun 06:38:10 06:42:30 28° 67° (ENE) 06:46:52 437.568
Tancredo 1 30 Jun 06:48:37 06:51:33 50° 325° (NW) 06:54:30 437.200
AO-7 30 Jun 06:53:49 06:58:48 18° 310° (NW) 07:03:47 .
NUDT-PHONESAT 30 Jun 06:57:39 07:01:15 52° 100° (E) 07:04:50 437.300
DOVE 4 30 Jun 07:01:14 07:06:07 50° 287° (WNW) 07:11:10 437.250
RS-15 30 Jun 07:08:02 07:18:49 41° 253° (WSW) 07:29:07 29.354- 29.394
YUBILEINY 30 Jun 07:12:44 07:18:20 18° 63° (ENE) 07:23:53 435.215
O/OREOS (USA 219) 30 Jun 07:16:55 07:21:12 46° 254° (WSW) 07:25:28 437.305
HO-68 30 Jun 07:21:29 07:27:31 29° 95° (E) 07:33:31 435.675
CUTE 1.7 + AOD 2 30 Jun 07:22:18 07:25:22 20° 94° (E) 07:28:26 437.475
XW-2F 30 Jun 07:29:52 07:33:25 42° 286° (WNW) 07:36:56 145.980 - 146.000
XW-2D 30 Jun 07:37:48 07:41:09 31° 288° (WNW) 07:44:30 145.860 - 145.880
XW-2B 30 Jun 07:47:09 07:50:17 26° 289° (WNW) 07:53:24 145.730 - 145.750
LilacSat-2 30 Jun 07:53:02 07:55:54 21° 291° (WNW) 07:58:45 437.200
CUTE-I 30 Jun 07:54:16 07:59:22 45° 290° (WNW) 08:04:28 437.470
XW-2A 30 Jun 07:58:48 08:01:54 33° 98° (E) 08:04:58 145.665 - 145.685
XW-2C 30 Jun 08:03:30 08:05:57 17° 292° (WNW) 08:08:24 145.795 - 145.815
KAITUO 1B 30 Jun 08:04:05 08:06:52 20° 291° (WNW) 08:09:38 145.475/437.950
ISS 30 Jun 08:11:14 08:13:55 23° 334° (NNW) 08:16:36 437.550
STRAND 1 30 Jun 08:16:57 08:21:33 33° 263° (W) 08:26:11 437.568
FO-29 30 Jun 08:18:07 08:22:16 18° 56° (ENE) 08:26:41 435.910
Tancredo 1 30 Jun 08:26:29 08:27:41 12° 343° (NNW) 08:28:53 437.200
CUBEBUG 2 30 Jun 08:27:14 08:31:49 56° 100° (E) 08:36:15 437.445
SEEDS 30 Jun 08:29:22 08:33:33 76° 102° (ESE) 08:37:42 437.485
ZACube-1 30 Jun 08:33:27 08:36:42 20° 93° (E) 08:39:54 437.345
UWE-3 30 Jun 08:49:45 08:54:14 58° 100° (E) 08:58:33 435.000/436.395/437.385
M-CUBED/EXP-1 PRIME 30 Jun 08:56:47 08:59:31 25° 66° (ENE) 09:02:15 437.505
CUTE 1.7 + AOD 2 30 Jun 08:57:31 09:01:14 31° 289° (WNW) 09:04:56 437.475
UNISAT 6 30 Jun 09:03:04 09:06:26 20° 66° (ENE) 09:09:50 437.425
AAUSAT CUBESAT 2 30 Jun 09:04:18 09:08:27 88° 100° (E) 09:12:34 437.432
YUBILEINY 30 Jun 09:07:32 09:16:26 89° 88° (E) 09:25:12 435.215
HO-68 30 Jun 09:08:35 09:15:28 52° 292° (WNW) 09:22:20 435.675
AO-73 30 Jun 09:30:24 09:34:48 82° 102° (ESE) 09:39:03 145.935
XW-2A 30 Jun 09:32:55 09:34:19 12° 293° (WNW) 09:35:42 145.665 - 145.685
DELFI C3 30 Jun 09:43:08 09:46:04 20° 94° (E) 09:48:59 145.870
PRISM 30 Jun 09:46:00 09:49:56 53° 74° (ENE) 09:53:54 437.425
Oscar 11 30 Jun 09:51:02 09:55:21 76° 283° (WNW) 09:59:37 .
TIGRISAT 30 Jun 09:54:24 09:58:58 63° 75° (ENE) 10:03:38 435.000
FO-29 30 Jun 09:59:59 10:06:13 83° 256° (WSW) 10:13:21 435.910
CUBEBUG 2 30 Jun 10:05:23 10:07:53 14° 296° (WNW) 10:10:20 437.445
ZACube-1 30 Jun 10:09:07 10:13:03 32° 289° (WNW) 10:16:53 437.345
